• In Uzbekistan
  • List of Countries
  • For 7 days
  • Water Temperature
  • Satellite Maps
  • Weather Map
  • Weather Widgets
  • user-avatar
    Login

    Hourly Weather Sevan

    Today, 25 July, Tuesday

    Time Temperature Precipitation Wind Pressure Humidity
    00:00 +18°C° 0.3 mm 3 mps 639 mmHg 79%
    01:00 +18°C° 0.1 mm 3 mps 639 mmHg 80%
    02:00 +18°C° 0.1 mm 3 mps 639 mmHg 81%
    03:00 +17°C° 0.1 mm 3 mps 639 mmHg 82%
    04:00 +18°C° 0 mm 2 mps 639 mmHg 80%
    05:00 +18°C° 0 mm 2 mps 639 mmHg 79%
    06:00 +18°C° 0 mm 2 mps 639 mmHg 78%
    07:00 +20°C° 0.1 mm 2 mps 639 mmHg 70%
    08:00 +21°C° 0.1 mm 2 mps 640 mmHg 61%
    09:00 +24°C° 0.1 mm 2 mps 640 mmHg 53%
    10:00 +26°C° 0.5 mm 2 mps 640 mmHg 49%
    11:00 +27°C° 0.5 mm 2 mps 640 mmHg 44%
    12:00 +28°C° 0.5 mm 2 mps 640 mmHg 40%
    13:00 +29°C° 0.6 mm 2 mps 640 mmHg 38%
    14:00 +29°C° 0.6 mm 2 mps 639 mmHg 37%
    15:00 +30°C° 0.6 mm 2 mps 639 mmHg 35%
    16:00 +29°C° 0.6 mm 2 mps 639 mmHg 39%
    17:00 +28°C° 0.6 mm 2 mps 639 mmHg 42%
    18:00 +27°C° 0.6 mm 2 mps 638 mmHg 46%
    19:00 +25°C° 0.3 mm 3 mps 638 mmHg 53%
    20:00 +22°C° 0.3 mm 3 mps 638 mmHg 60%
    21:00 +20°C° 0.3 mm 3 mps 638 mmHg 67%
    22:00 +19°C° 0.1 mm 3 mps 638 mmHg 69%
    23:00 +19°C° 0.1 mm 3 mps 638 mmHg 71%

    Tomorrow, 26 July, Wednesday

    Time Temperature Precipitation Wind Pressure Humidity
    00:00 +18°C° 0.1 mm 3 mps 639 mmHg 73%
    01:00 +18°C° 0 mm 2 mps 638 mmHg 73%
    02:00 +17°C° 0 mm 2 mps 638 mmHg 74%
    03:00 +17°C° 0 mm 2 mps 638 mmHg 75%
    04:00 +17°C° 0 mm 2 mps 638 mmHg 74%
    05:00 +18°C° 0 mm 2 mps 639 mmHg 73%
    06:00 +19°C° 0 mm 1 mps 639 mmHg 72%
    07:00 +21°C° 0 mm 1 mps 639 mmHg 62%
    08:00 +24°C° 0 mm 1 mps 640 mmHg 53%
    09:00 +26°C° 0 mm 1 mps 640 mmHg 43%
    10:00 +27°C° 0 mm 2 mps 641 mmHg 39%
    11:00 +28°C° 0 mm 2 mps 641 mmHg 35%
    12:00 +30°C° 0 mm 2 mps 641 mmHg 31%
    13:00 +30°C° 0 mm 2 mps 640 mmHg 30%
    14:00 +31°C° 0 mm 2 mps 640 mmHg 29%
    15:00 +31°C° 0 mm 2 mps 640 mmHg 28%
    16:00 +30°C° 0.2 mm 2 mps 640 mmHg 32%
    17:00 +29°C° 0.2 mm 2 mps 640 mmHg 36%
    18:00 +29°C° 0.2 mm 2 mps 640 mmHg 40%
    19:00 +26°C° 0.1 mm 2 mps 640 mmHg 49%
    20:00 +24°C° 0.1 mm 2 mps 640 mmHg 57%
    21:00 +21°C° 0.1 mm 3 mps 640 mmHg 66%
    22:00 +20°C° 0.2 mm 3 mps 640 mmHg 67%
    23:00 +20°C° 0.2 mm 2 mps 640 mmHg 69%

    Day after tomorrow, 27 July, Thursday

    Time Temperature Precipitation Wind Pressure Humidity
    00:00 +19°C° 0.2 mm 2 mps 640 mmHg 70%
    01:00 +19°C° 0.1 mm 2 mps 640 mmHg 71%
    02:00 +18°C° 0.1 mm 2 mps 640 mmHg 72%
    03:00 +18°C° 0.1 mm 2 mps 640 mmHg 73%
    04:00 +19°C° 0 mm 1 mps 640 mmHg 72%
    05:00 +20°C° 0 mm 1 mps 641 mmHg 70%
    06:00 +20°C° 0 mm 1 mps 641 mmHg 69%
    07:00 +22°C° 0 mm 1 mps 641 mmHg 60%
    08:00 +25°C° 0 mm 1 mps 642 mmHg 51%
    09:00 +27°C° 0 mm 1 mps 642 mmHg 42%
    10:00 +28°C° 0 mm 2 mps 643 mmHg 38%
    11:00 +30°C° 0 mm 2 mps 643 mmHg 34%
    12:00 +31°C° 0 mm 2 mps 643 mmHg 29%
    13:00 +32°C° 0 mm 2 mps 642 mmHg 28%
    14:00 +32°C° 0 mm 2 mps 642 mmHg 27%
    15:00 +34°C° 0 mm 2 mps 642 mmHg 26%
    16:00 +32°C° 0 mm 2 mps 642 mmHg 29%
    17:00 +31°C° 0 mm 2 mps 642 mmHg 33%
    18:00 +30°C° 0 mm 2 mps 641 mmHg 37%
    19:00 +28°C° 0 mm 2 mps 641 mmHg 46%
    20:00 +26°C° 0 mm 2 mps 641 mmHg 54%
    21:00 +22°C° 0 mm 3 mps 641 mmHg 63%
    22:00 +23°C° 0 mm 2 mps 641 mmHg 64%
    23:00 +21°C° 0 mm 2 mps 641 mmHg 66%

    28 July, Friday

    Time Temperature Precipitation Wind Pressure Humidity
    00:00 +21°C° 0 mm 2 mps 641 mmHg 68%
    01:00 +20°C° 0 mm 2 mps 641 mmHg 68%
    02:00 +20°C° 0 mm 2 mps 641 mmHg 67%
    03:00 +20°C° 0 mm 2 mps 641 mmHg 66%
    04:00 +20°C° 0 mm 2 mps 641 mmHg 63%
    05:00 +21°C° 0 mm 1 mps 641 mmHg 60%
    06:00 +22°C° 0 mm 1 mps 642 mmHg 57%
    07:00 +25°C° 0 mm 1 mps 642 mmHg 48%
    08:00 +27°C° 0 mm 2 mps 643 mmHg 39%
    09:00 +30°C° 0 mm 2 mps 643 mmHg 30%
    10:00 +31°C° 0 mm 2 mps 643 mmHg 27%
    11:00 +34°C° 0 mm 2 mps 643 mmHg 25%
    12:00 +35°C° 0 mm 2 mps 643 mmHg 22%
    13:00 +35°C° 0 mm 3 mps 643 mmHg 21%
    14:00 +36°C° 0 mm 3 mps 643 mmHg 20%
    15:00 +36°C° 0 mm 3 mps 643 mmHg 19%
    16:00 +35°C° 0 mm 2 mps 643 mmHg 23%
    17:00 +34°C° 0 mm 2 mps 642 mmHg 26%
    18:00 +32°C° 0 mm 2 mps 642 mmHg 30%
    19:00 +30°C° 0 mm 2 mps 642 mmHg 34%
    20:00 +27°C° 0 mm 2 mps 642 mmHg 38%
    21:00 +25°C° 0 mm 2 mps 642 mmHg 42%
    22:00 +24°C° 0 mm 2 mps 642 mmHg 41%
    23:00 +24°C° 0 mm 1 mps 642 mmHg 41%

    29 July, Saturday

    Time Temperature Precipitation Wind Pressure Humidity
    00:00 +23°C° 0 mm 1 mps 642 mmHg 40%
    01:00 +23°C° 0 mm 1 mps 642 mmHg 38%
    02:00 +23°C° 0 mm 1 mps 642 mmHg 36%
    03:00 +22°C° 0 mm 1 mps 642 mmHg 34%
    04:00 +23°C° 0 mm 1 mps 642 mmHg 35%
    05:00 +23°C° 0 mm 1 mps 642 mmHg 35%
    06:00 +24°C° 0 mm 1 mps 642 mmHg 35%
    07:00 +26°C° 0 mm 1 mps 643 mmHg 30%
    08:00 +29°C° 0 mm 2 mps 643 mmHg 26%
    09:00 +31°C° 0 mm 2 mps 644 mmHg 22%
    10:00 +34°C° 0 mm 2 mps 644 mmHg 20%
    11:00 +35°C° 0 mm 3 mps 644 mmHg 19%
    12:00 +36°C° 0 mm 3 mps 644 mmHg 18%
    13:00 +36°C° 0 mm 3 mps 644 mmHg 18%
    14:00 +37°C° 0 mm 4 mps 643 mmHg 19%
    15:00 +37°C° 0 mm 4 mps 643 mmHg 19%
    16:00 +35°C° 0 mm 4 mps 643 mmHg 23%
    17:00 +34°C° 0 mm 3 mps 642 mmHg 27%
    18:00 +31°C° 0 mm 2 mps 642 mmHg 31%
    19:00 +29°C° 0 mm 2 mps 642 mmHg 40%
    20:00 +26°C° 0 mm 3 mps 642 mmHg 49%
    21:00 +24°C° 0 mm 3 mps 642 mmHg 58%
    22:00 +22°C° 0 mm 3 mps 642 mmHg 63%
    23:00 +21°C° 0 mm 2 mps 642 mmHg 69%

    30 July, Sunday

    Time Temperature Precipitation Wind Pressure Humidity
    00:00 +20°C° 0 mm 2 mps 642 mmHg 75%
    01:00 +19°C° 0 mm 2 mps 642 mmHg 76%
    02:00 +19°C° 0 mm 2 mps 642 mmHg 77%
    03:00 +18°C° 0 mm 2 mps 642 mmHg 78%
    04:00 +19°C° 0 mm 2 mps 643 mmHg 76%
    05:00 +19°C° 0 mm 2 mps 643 mmHg 75%
    06:00 +21°C° 0 mm 1 mps 643 mmHg 73%
    07:00 +23°C° 0 mm 2 mps 644 mmHg 64%
    08:00 +25°C° 0 mm 2 mps 644 mmHg 55%
    09:00 +27°C° 0 mm 2 mps 645 mmHg 45%
    10:00 +29°C° 0 mm 2 mps 645 mmHg 41%
    11:00 +30°C° 0 mm 2 mps 645 mmHg 36%
    12:00 +33°C° 0 mm 3 mps 645 mmHg 32%
    13:00 +33°C° 0 mm 3 mps 644 mmHg 30%
    14:00 +33°C° 0 mm 3 mps 644 mmHg 29%
    15:00 +34°C° 0 mm 3 mps 644 mmHg 28%
    16:00 +33°C° 0 mm 3 mps 644 mmHg 33%
    17:00 +31°C° 0 mm 3 mps 644 mmHg 37%
    18:00 +30°C° 0 mm 3 mps 643 mmHg 41%
    19:00 +27°C° 0 mm 3 mps 643 mmHg 49%
    20:00 +25°C° 0 mm 3 mps 643 mmHg 56%
    21:00 +21°C° 0 mm 3 mps 643 mmHg 63%
    22:00 +21°C° 0 mm 3 mps 643 mmHg 63%
    23:00 +20°C° 0 mm 3 mps 643 mmHg 63%
    Show more